TimeAKDT,TemperatureF,Dew PointF,Humidity,Sea Level PressureIn,VisibilityMPH,Wind Direction,Wind SpeedMPH,Gust SpeedMPH,PrecipitationIn,Events,Conditions,WindDirDegrees,DateUTC
12:53 AM,37.0,25.0,62,29.76,10.0,NNW,4.6,-,N/A,,Scattered Clouds,330,2014-03-28 08:53:00
1:53 AM,37.0,19.9,50,29.75,10.0,Calm,Calm,-,N/A,,Partly Cloudy,0,2014-03-28 09:53:00
2:53 AM,35.1,21.0,57,29.75,10.0,Calm,Calm,-,N/A,,Clear,0,2014-03-28 10:53:00
3:53 AM,33.1,21.9,64,29.73,10.0,North,3.5,-,N/A,,Clear,10,2014-03-28 11:53:00
4:53 AM,32.0,21.0,64,29.72,10.0,Calm,Calm,-,N/A,,Clear,0,2014-03-28 12:53:00
5:53 AM,30.9,21.0,67,29.71,10.0,Calm,Calm,-,N/A,,Clear,0,2014-03-28 13:53:00
6:53 AM,30.9,19.9,64,29.70,10.0,Calm,Calm,-,N/A,,Clear,0,2014-03-28 14:53:00
7:53 AM,34.0,21.9,61,29.68,10.0,Calm,Calm,-,N/A,,Clear,0,2014-03-28 15:53:00
8:53 AM,37.0,25.0,62,29.66,10.0,NW,4.6,-,N/A,,Clear,320,2014-03-28 16:53:00
9:53 AM,39.9,25.0,55,29.66,10.0,NNW,5.8,-,N/A,,Clear,330,2014-03-28 17:53:00
10:53 AM,39.9,21.9,49,29.64,10.0,WNW,4.6,-,N/A,,Clear,300,2014-03-28 18:53:00
11:53 AM,43.0,21.0,42,29.62,10.0,West,5.8,-,N/A,,Clear,260,2014-03-28 19:53:00
12:53 PM,44.1,19.9,38,29.61,10.0,Variable,5.8,-,N/A,,Scattered Clouds,0,2014-03-28 20:53:00
1:53 PM,46.0,19.0,34,29.59,10.0,SW,9.2,-,N/A,,Partly Cloudy,230,2014-03-28 21:53:00
2:53 PM,46.0,19.9,35,29.57,10.0,West,4.6,-,N/A,,Partly Cloudy,270,2014-03-28 22:53:00
3:53 PM,46.9,21.9,37,29.56,10.0,WNW,8.1,-,N/A,,Partly Cloudy,290,2014-03-28 23:53:00
4:53 PM,46.0,18.0,33,29.55,10.0,ESE,16.1,-,N/A,,Partly Cloudy,110,2014-03-29 00:53:00
5:53 PM,45.0,18.0,34,29.54,10.0,ESE,13.8,-,N/A,,Partly Cloudy,110,2014-03-29 01:53:00
6:53 PM,44.1,17.1,34,29.54,10.0,ESE,8.1,-,N/A,,Partly Cloudy,110,2014-03-29 02:53:00
7:53 PM,42.1,16.0,35,29.54,10.0,ESE,6.9,-,N/A,,Scattered Clouds,110,2014-03-29 03:53:00
8:53 PM,39.0,17.1,41,29.54,10.0,NE,4.6,-,N/A,,Clear,50,2014-03-29 04:53:00
9:53 PM,39.0,17.1,41,29.54,10.0,North,3.5,-,N/A,,Clear,360,2014-03-29 05:53:00
10:53 PM,36.0,19.9,52,29.55,10.0,ESE,5.8,-,N/A,,Clear,110,2014-03-29 06:53:00
11:53 PM,34.0,21.9,61,29.56,10.0,Calm,Calm,-,N/A,,Clear,0,2014-03-29 07:53:00